Location: Peebles
(55.6412°N, 3.1714°W)
Time: 21:59:56
(UTC+01:00)

CENTAUR R/B - Pass Details

Date: 28 January 2022
Orbit: 716 x 1471 km, 63.4° (Epoch: 08 May)

Event Time Altitude Azimuth Distance (km) Brightness Sun altitude
Rises 19:07:10 0° 282° (WNW) 3,741 7.0 -20.6°
Reaches altitude 10° 19:09:43 10° 289° (WNW) 2,896 6.0 -21.0°
Maximum altitude 19:16:28 48° 3° (N) 1,554 3.5 -21.9°
Enters shadow 19:20:01 31° 57° (ENE) 2,107 3.8 -22.4°
